Flag Weather past 2 weeks in Billings, Montana, U.S.A.

Now
44 °F

Broken clouds.


Feels Like: 37 °F
Forecast: 31 / 43 °F
Wind: 14 mph from Southwest

Location: Billings Logan International Airport

Current Time: Nov 22, 2014 at 5:10:38 PM

Latest Report: Nov 22, 2014 at 3:53 PM


Visibility: 10 mi

Pressure: 29.46 "Hg

Humidity: 65%

Dew point: 33 °F

Location of BillingsLocation

Historic Weather in Billings — Graph

°F

Billings temperature yesterday

Maximum temperature yesterday: 45 °F (at 2:53 PM)
Minimum temperature yesterday: 29 °F (at 7:53 AM)
Average temperature yesterday: 36 °F

Past Weeks' High & Low Weather Summary

 TemperatureHumidityPressure
High69 °F (Nov 8, 2:53 PM)100% (Nov 9, 8:53 PM)30.89 "Hg (Nov 9, 8:53 PM)
Low-8 °F (Nov 13, 5:53 AM)10% (Nov 8, 2:53 PM)29.40 "Hg (Nov 22, 1:53 PM)
Average22 °F65%30.22 "Hg
* Reported Nov 7 3:53 PM — Nov 22 3:53 PM, Billings, Weather by CustomWeather, © 2014

Note: Actual official high and low records may vary slightly from our data, if they occured in-between our weather recording intervals... More about our weather records

Advertising

Billings weather history for previous 24 hours

 ConditionsComfort  
Time TempWeatherWind HumidityBarometerVisibility
3:53 PM
Nov 22
44 °FBroken clouds.14 mph65%29.46 "Hg10 mi
2:53 PM44 °FLight rain. Partly sunny.17 mph68%29.42 "Hg10 mi
1:53 PM49 °FPartly sunny.22 mph52%29.40 "Hg10 mi
12:53 PM49 °FBroken clouds.15 mph57%29.40 "Hg10 mi
11:53 AM47 °FLight rain. Broken clouds.13 mph69%29.43 "Hg10 mi
10:53 AM50 °FBroken clouds.18 mph43%29.43 "Hg10 mi
9:53 AM50 °FScattered clouds.12 mph43%29.43 "Hg10 mi
8:53 AM46 °FScattered clouds.13 mph48%29.43 "Hg10 mi
7:53 AM46 °FPartly sunny.15 mph48%29.45 "Hg10 mi
6:53 AM44 °FMostly cloudy.15 mph49%29.43 "Hg10 mi
5:53 AM42 °FOvercast.18 mph51%29.45 "Hg10 mi
4:53 AM40 °FPassing clouds.16 mph53%29.47 "Hg10 mi
3:53 AM39 °FPassing clouds.9 mph55%29.48 "Hg10 mi
2:53 AM40 °FMostly cloudy.16 mph53%29.52 "Hg10 mi
1:53 AM40 °FOvercast.10 mph53%29.56 "Hg10 mi
12:53 AM38 °FMostly cloudy.15 mph55%29.60 "Hg10 mi
11:53 PM
Nov 21
34 °FPassing clouds.10 mph64%29.66 "Hg10 mi
10:53 PM35 °FPassing clouds.10 mph61%29.70 "Hg10 mi
9:53 PM33 °FClear.12 mph66%29.72 "Hg10 mi
8:53 PM35 °FClear.12 mph61%29.77 "Hg10 mi
7:53 PM38 °FClear.15 mph55%29.80 "Hg10 mi
6:53 PM40 °FClear.16 mph51%29.82 "Hg10 mi
5:53 PM39 °FPassing clouds.16 mph55%29.83 "Hg10 mi
Weather by CustomWeather, © 2014

See weather overviewHow to use our weather pages